Total_Precipitation_Accumulation
0.92 1.20 1.60 1.84 2.18 2.60 2.78 2.83 2.77 2.92 3.13 3.02 2.80 2.59 2.34 2.12 1.92 1.77 1.62 1.50 1.39 1.29 1.19 1.05 1.04 1.05 1.02 0.99 0.94 0.89 0.83 0.76 0.73 0.72 0.63 0.52 0.48 0.44 0.38 0.35 0.32 0.29 0.27
0.80 1.08 1.39 1.71 1.91 2.42 2.71 2.75 2.85 2.98 3.14 3.03 2.92 2.84 2.70 2.48 2.26 2.10 1.81 1.61 1.48 1.37 1.34 1.20 1.04 1.03 1.05 1.04 1.05 1.07 1.06 1.01 0.98 0.98 0.95 0.79 0.62 0.47 0.39 0.38 0.38 0.37 0.37
0.73 0.92 1.16 1.46 1.60 1.93 2.32 2.50 2.58 2.79 2.93 3.11 3.39 3.37 3.19 2.79 2.36 2.07 1.93 1.77 1.71 1.60 1.47 1.44 1.30 1.14 1.09 1.02 0.97 0.97 1.01 1.03 1.05 1.05 1.13 1.03 0.79 0.59 0.47 0.39 0.37 0.38 0.41
0.69 0.85 1.03 1.17 1.36 1.56 1.89 2.23 2.46 2.60 2.65 2.75 3.05 3.18 3.02 2.63 2.26 2.04 2.02 2.04 1.95 1.89 1.81 1.67 1.57 1.40 1.26 1.15 1.10 1.06 1.04 1.07 1.07 1.05 1.00 0.97 0.85 0.81 0.66 0.47 0.41 0.40 0.40
0.77 0.86 0.93 0.96 1.09 1.31 1.65 1.95 2.20 2.44 2.48 2.43 2.57 2.82 2.93 2.81 2.61 2.38 2.24 2.15 2.06 1.94 1.90 1.84 1.76 1.60 1.48 1.39 1.35 1.29 1.24 1.22 1.17 1.11 1.05 1.03 0.93 0.85 0.86 0.65 0.46 0.47 0.46
0.83 0.85 0.88 0.90 0.96 1.10 1.34 1.62 1.86 2.20 2.38 2.32 2.37 2.47 2.55 2.66 2.61 2.38 2.32 2.24 2.20 2.06 1.90 1.84 1.82 1.74 1.67 1.61 1.58 1.56 1.47 1.39 1.31 1.26 1.19 1.20 1.15 1.00 1.00 0.92 0.69 0.62 0.56
0.73 0.73 0.72 0.76 0.87 1.00 1.12 1.34 1.46 1.72 2.01 2.14 2.16 2.19 2.29 2.37 2.45 2.42 2.36 2.32 2.18 2.03 1.93 1.86 1.85 1.83 1.72 1.70 1.69 1.65 1.55 1.49 1.43 1.40 1.35 1.28 1.21 1.17 1.21 1.24 1.07 0.92 0.74
0.74 0.72 0.70 0.75 0.88 0.94 1.01 1.14 1.27 1.39 1.63 1.83 1.88 1.90 2.04 2.12 2.12 2.20 2.18 2.16 2.09 2.00 1.98 1.96 1.86 1.84 1.80 1.71 1.68 1.64 1.54 1.49 1.46 1.42 1.41 1.37 1.29 1.29 1.34 1.40 1.46 1.35 1.07
0.66 0.70 0.72 0.78 0.84 0.88 0.94 1.02 1.12 1.15 1.27 1.50 1.62 1.70 1.75 1.77 1.73 1.74 1.75 1.80 1.86 1.88 1.85 1.86 1.78 1.69 1.67 1.64 1.62 1.58 1.50 1.44 1.37 1.33 1.33 1.32 1.26 1.27 1.31 1.38 1.54 1.72 1.55
0.66 0.69 0.71 0.71 0.73 0.78 0.83 0.91 0.94 0.93 1.00 1.14 1.24 1.41 1.49 1.48 1.53 1.52 1.47 1.46 1.46 1.52 1.58 1.61 1.61 1.54 1.51 1.50 1.48 1.43 1.41 1.39 1.30 1.24 1.23 1.20 1.16 1.20 1.26 1.34 1.41 1.58 1.70
0.68 0.72 0.74 0.72 0.70 0.75 0.80 0.82 0.79 0.80 0.84 0.93 1.00 1.06 1.18 1.25 1.30 1.31 1.23 1.23 1.19 1.17 1.22 1.23 1.26 1.30 1.31 1.32 1.31 1.29 1.28 1.30 1.25 1.21 1.21 1.20 1.17 1.18 1.18 1.22 1.26 1.33 1.46
0.60 0.64 0.70 0.69 0.70 0.73 0.77 0.80 0.74 0.73 0.75 0.81 0.83 0.86 0.95 1.07 1.12 1.16 1.10 1.04 1.05 0.99 0.99 1.00 0.99 1.00 1.02 1.06 1.09 1.08 1.09 1.13 1.12 1.10 1.13 1.13 1.16 1.19 1.17 1.16 1.15 1.13 1.14
0.52 0.54 0.56 0.62 0.66 0.68 0.71 0.78 0.76 0.69 0.67 0.69 0.69 0.74 0.81 0.90 0.95 0.97 0.99 0.93 0.95 0.89 0.86 0.85 0.85 0.84 0.84 0.86 0.92 0.98 1.00 1.02 1.02 1.01 1.01 1.02 1.06 1.08 1.04 1.02 1.01 0.99 1.01
0.40 0.41 0.45 0.50 0.54 0.59 0.64 0.68 0.71 0.71 0.71 0.68 0.64 0.67 0.72 0.83 0.87 0.83 0.86 0.86 0.91 0.92 0.83 0.78 0.76 0.77 0.79 0.82 0.85 0.94 0.99 0.99 1.00 1.00 1.00 0.96 0.93 0.90 0.89 0.91 0.93 1.00 1.09
0.30 0.32 0.33 0.36 0.41 0.45 0.50 0.55 0.60 0.63 0.68 0.69 0.67 0.66 0.66 0.75 0.80 0.74 0.74 0.76 0.80 0.91 0.90 0.85 0.81 0.79 0.79 0.83 0.88 0.91 0.96 0.97 0.98 0.96 0.93 0.91 0.92 0.88 0.86 0.87 0.91 1.00 1.14
0.21 0.22 0.22 0.24 0.26 0.30 0.36 0.42 0.48 0.53 0.61 0.63 0.65 0.65 0.63 0.67 0.76 0.74 0.72 0.73 0.77 0.86 0.92 0.96 0.94 0.89 0.87 1.00 0.99 0.92 0.93 0.96 0.96 0.93 0.87 0.84 0.89 0.87 0.87 0.88 0.95 1.09 1.24
0.15 0.15 0.15 0.16 0.17 0.21 0.25 0.30 0.35 0.41 0.48 0.55 0.60 0.63 0.67 0.69 0.75 0.77 0.77 0.82 0.88 0.95 0.96 1.01 1.04 1.02 1.06 1.09 0.97 0.95 0.87 0.87 0.89 0.87 0.84 0.80 0.77 0.82 0.76 0.82 0.95 1.03 1.14
0.14 0.16 0.16 0.16 0.16 0.17 0.17 0.20 0.26 0.33 0.38 0.43 0.51 0.55 0.61 0.64 0.67 0.75 0.80 0.85 0.91 0.96 1.00 1.03 1.02 0.99 1.00 1.01 0.90 0.87 0.81 0.81 0.82 0.80 0.78 0.80 0.81 0.80 0.85 0.90 0.97 0.87 0.82
0.14 0.15 0.14 0.15 0.15 0.15 0.16 0.17 0.22 0.30 0.35 0.41 0.48 0.53 0.61 0.65 0.68 0.76 0.79 0.83 0.89 0.93 0.91 0.91 0.92 0.92 0.92 0.90 0.82 0.79 0.74 0.75 0.72 0.70 0.69 0.71 0.73 0.88 1.05 1.09 1.09 0.91 0.73
0.13 0.14 0.14 0.15 0.17 0.19 0.21 0.23 0.26 0.31 0.35 0.42 0.49 0.52 0.60 0.70 0.74 0.77 0.76 0.75 0.80 0.86 0.83 0.78 0.76 0.75 0.77 0.80 0.75 0.73 0.69 0.71 0.68 0.65 0.64 0.70 0.73 0.87 1.03 1.00 1.05 1.00 0.84
0.14 0.14 0.15 0.18 0.22 0.27 0.29 0.30 0.34 0.38 0.40 0.42 0.47 0.46 0.51 0.58 0.62 0.64 0.65 0.67 0.68 0.69 0.66 0.63 0.63 0.61 0.62 0.66 0.64 0.63 0.61 0.65 0.66 0.62 0.57 0.57 0.75 0.87 0.94 0.91 0.83 0.94 1.01
0.17 0.16 0.18 0.20 0.22 0.29 0.35 0.36 0.35 0.36 0.36 0.37 0.41 0.43 0.45 0.49 0.51 0.54 0.57 0.59 0.58 0.57 0.55 0.52 0.52 0.50 0.51 0.55 0.56 0.58 0.60 0.67 0.63 0.58 0.53 0.56 0.72 0.74 0.75 0.75 0.81 0.97 0.98
0.17 0.16 0.17 0.18 0.19 0.22 0.29 0.36 0.36 0.34 0.34 0.37 0.40 0.40 0.39 0.41 0.45 0.46 0.48 0.49 0.47 0.46 0.45 0.44 0.43 0.44 0.45 0.51 0.58 0.59 0.64 0.68 0.63 0.57 0.62 0.65 0.67 0.63 0.62 0.73 0.86 0.85 0.78
0.14 0.15 0.14 0.16 0.19 0.20 0.22 0.26 0.29 0.30 0.31 0.32 0.34 0.37 0.38 0.36 0.35 0.37 0.40 0.43 0.45 0.45 0.43 0.43 0.41 0.40 0.42 0.44 0.49 0.55 0.58 0.60 0.61 0.62 0.63 0.60 0.59 0.59 0.61 0.67 0.70 0.71 0.81
0.14 0.15 0.15 0.16 0.17 0.17 0.18 0.18 0.19 0.22 0.26 0.29 0.29 0.30 0.32 0.34 0.33 0.32 0.34 0.39 0.41 0.47 0.52 0.51 0.50 0.49 0.46 0.46 0.56 0.61 0.60 0.62 0.63 0.64 0.57 0.54 0.54 0.54 0.55 0.59 0.61 0.67 0.82
0.14 0.15 0.15 0.15 0.16 0.16 0.17 0.18 0.18 0.20 0.22 0.25 0.26 0.27 0.29 0.30 0.30 0.31 0.30 0.33 0.36 0.42 0.47 0.52 0.55 0.52 0.53 0.56 0.58 0.59 0.63 0.67 0.69 0.67 0.59 0.56 0.55 0.58 0.60 0.62 0.66 0.70 0.83